Dewpoint
70 70 69 69 69 69 68 68 68 68 68 69 70 71 71 72 72 73 73 73 73 74 74 75 75 75 75 75 75 75 75 74 74 73 72 71 69 68 67 66 66 64
70 70 70 69 70 70 69 68 68 69 68 68 69 70 71 72 72 72 73 73 73 73 74 75 75 75 75 75 74 74 74 74 73 73 72 71 69 68 67 66 66 66
70 69 69 69 69 69 69 69 69 69 69 69 69 70 71 72 72 72 73 73 73 73 74 74 75 75 75 75 74 74 74 74 73 73 72 71 70 68 68 66 65 66
70 69 69 69 69 69 70 70 69 69 70 70 69 70 71 72 72 72 72 74 73 73 73 74 74 75 75 75 74 74 74 74 74 73 72 72 71 69 68 67 66 65
69 69 69 69 69 69 69 70 69 69 69 70 70 71 72 72 72 72 72 72 73 73 73 73 74 74 75 75 74 74 74 73 73 73 72 72 71 70 69 68 67 65
70 70 69 69 69 69 68 69 70 70 69 69 70 71 71 71 72 72 72 72 72 72 73 73 73 74 74 74 74 74 74 73 73 73 72 72 72 71 70 69 68 67
69 69 69 69 69 69 69 69 69 71 70 70 71 71 71 71 71 71 71 71 72 72 72 73 73 73 74 74 74 73 73 73 73 73 72 72 72 71 70 69 68 68
69 69 69 69 69 69 69 69 69 70 71 71 70 71 72 71 72 72 72 71 71 72 72 72 73 73 74 74 73 73 73 73 73 73 72 72 72 71 71 70 68 68
69 69 69 69 69 69 69 69 69 70 71 71 71 71 71 72 72 72 72 72 71 71 72 72 73 73 73 74 73 73 73 73 73 73 72 72 72 71 71 70 69 68
69 69 69 69 69 69 69 69 69 70 71 71 71 71 71 72 72 72 72 72 72 71 71 72 72 73 73 73 73 73 73 73 73 73 73 72 72 72 71 71 70 69
68 69 69 69 69 69 69 69 69 69 70 70 71 71 71 71 72 72 72 72 72 72 71 71 72 72 73 73 73 73 73 73 73 73 72 72 72 72 72 71 70 69
69 69 69 69 69 69 69 69 69 69 69 70 71 71 71 71 71 72 72 72 72 72 72 72 72 72 72 73 73 73 73 73 73 73 73 72 72 72 72 71 71 70
69 69 69 69 69 69 69 69 69 69 69 69 70 70 71 71 71 71 72 72 72 72 72 72 72 72 72 72 73 73 73 73 73 73 73 72 72 72 72 72 71 71
69 69 69 69 69 70 69 69 69 69 69 69 69 69 70 70 71 71 71 72 72 72 72 72 72 72 72 72 72 72 73 73 73 72 72 72 72 72 72 72 72 71
70 70 70 70 70 70 70 69 69 69 69 69 69 69 69 69 70 71 71 71 72 72 72 72 71 72 72 72 72 72 72 72 73 73 72 72 72 72 73 73 72 72
70 71 71 71 70 70 70 70 69 69 69 69 69 69 69 69 69 70 71 71 71 71 71 72 72 72 69 65 67 72 72 72 72 73 73 72 72 72 72 73 73 72
71 71 71 71 71 71 70 70 70 70 70 70 69 69 69 69 69 69 69 70 71 71 71 71 72 71 66 63 64 65 71 72 72 72 73 73 73 72 72 72 72 73
71 71 71 71 71 71 71 70 70 70 70 70 69 69 69 69 69 69 69 69 70 70 71 71 71 66 64 63 63 63 65 72 72 72 72 73 73 73 73 72 72 72
71 71 71 71 71 71 71 71 70 70 70 69 69 69 69 69 69 69 69 69 69 69 69 70 71 65 63 62 62 62 62 66 72 72 72 72 72 73 73 73 72 72
72 71 71 71 72 71 71 71 70 70 70 70 69 70 69 69 69 69 69 69 69 69 69 69 70 66 62 61 61 61 61 63 71 72 72 72 72 72 72 72 72 72
72 72 71 72 72 72 71 71 71 70 70 70 69 69 69 69 69 69 69 69 69 69 69 69 69 64 61 59 59 59 60 61 69 71 71 71 72 72 72 72 72 72
72 72 72 72 72 72 71 71 71 71 70 70 70 69 69 69 69 69 69 69 69 69 69 68 69 62 60 59 58 58 59 65 68 70 71 71 71 71 72 72 72 72
72 72 72 72 72 72 71 71 71 71 71 70 70 69 69 68 68 68 69 69 69 69 69 69 69 64 59 58 57 57 59 67 68 69 70 71 71 71 72 72 72 72
73 72 72 72 72 72 72 71 71 71 71 71 70 69 69 68 68 68 68 68 68 69 69 69 68 65 58 57 57 56 60 67 68 69 70 70 71 71 72 72 72 70
73 73 73 72 72 72 72 71 71 71 71 71 70 70 69 69 69 68 68 68 68 68 67 68 69 66 58 57 56 55 61 68 69 69 69 70 70 70 71 71 72 71
73 73 73 73 72 72 72 72 72 71 71 71 71 70 70 69 69 68 68 68 68 68 68 69 69 69 66 56 55 54 57 68 69 69 69 70 70 70 70 71 71 71